Change the Weather History Date:

Monday, November 5, 2012

  Actual Average (KATT) Record (KATT)
Temperature  
Mean Temperature 71 °F 65 °F  
Max Temperature 82 °F 75 °F 88 °F (1963)
Min Temperature 60 °F 55 °F 30 °F (1936)
Degree Days  
Heating Degree Days 0 3  
Month to date heating degree days 15  
Since 1 July heating degree days 46  
Cooling Degree Days 6 3  
Month to date cooling degree days 19  
Year to date cooling degree days 3084  
Growing Degree Days 21 (Base 50)    
Moisture  
Dew Point 53 °F    
Average Humidity 57    
Maximum Humidity 82    
Minimum Humidity 35    
Precipitation  
Precipitation 0.00 in 0.10 in 3.45 in (1978)
Month to date precipitation 0.55  
Year to date precipitation 29.51  
Snow  
Snow 0.00 in - - ()
Month to date snowfall  
Since 1 July snowfall  
Since 1 September snowfall  
Snow Depth -    
Sea Level Pressure  
Sea Level Pressure 30.06 in    
Wind  
Wind Speed 5 mph (WNW)    
Max Wind Speed 13 mph    
Max Gust Speed 17 mph    
Visibility 10 miles    
Events      
T = Trace of Precipitation, MM = Missing Value Source: NWS Daily Summary

Daily Weather History Graph

Daily Weather History Graph

Search for Another Location

Airport or City:

Trip Planner

Search our weather history database for the weather conditions in past years. The results will help you decide how hot, cold, wet, or windy it might be!

Date:

Astronomy

Nov. 05, 2012 Rise Set
Actual Time 6:49 AM CST 5:40 PM CST
Civil Twilight 6:24 AM CST 6:05 PM CST
Nautical Twilight 5:56 AM CST 6:34 PM CST
Astronomical Twilight 5:28 AM CST 7:02 PM CST
Moon 11:18 PM CST (11/5) 12:09 PM CST (11/5)
Length of Visible Light 11h 40m
Length of Day
10h 50m
Waning Gibbous, 62% of the Moon is Illuminated
Nov 5
Waning Gibbous
Nov 6
Last Quarter
Nov 13
New
Nov 20
First Quarter
Nov 28
Full

Hourly Weather History & Observations

Time (CST) Temp. Heat Index Dew Point Humidity Pressure Visibility Wind Dir Wind Speed Gust Speed Precip Events Conditions
12:15 AM 64.4 °F - 55.4 °F 73% 30.10 in 10.0 mi Calm Calm - N/A   Clear
12:35 AM 66.2 °F - 55.4 °F 68% 30.10 in 10.0 mi SW 3.5 mph - N/A   Clear
12:55 AM 64.4 °F - 55.4 °F 73% 30.09 in 10.0 mi Calm Calm - N/A   Clear
1:15 AM 64.4 °F - 55.4 °F 73% 30.09 in 10.0 mi Calm Calm - N/A   Clear
1:35 AM 64.4 °F - 55.4 °F 73% 30.09 in 10.0 mi West 3.5 mph - N/A   Clear
1:55 AM 62.6 °F - 55.4 °F 77% 30.09 in 10.0 mi Calm Calm - N/A   Clear
2:15 AM 62.6 °F - 55.4 °F 77% 30.09 in 10.0 mi WSW 3.5 mph - N/A   Clear
2:35 AM 62.6 °F - 55.4 °F 77% 30.08 in 10.0 mi WSW 5.8 mph - N/A   Clear
2:55 AM 62.6 °F - 55.4 °F 77% 30.08 in 10.0 mi WSW 4.6 mph - N/A   Clear
3:15 AM 64.4 °F - 55.4 °F 73% 30.07 in 10.0 mi Calm Calm - N/A   Clear
3:35 AM 64.4 °F - 57.2 °F 77% 30.06 in 10.0 mi SW 3.5 mph - N/A   Clear
3:55 AM 64.4 °F - 57.2 °F 77% 30.06 in 10.0 mi SW 3.5 mph - N/A   Clear
4:15 AM 64.4 °F - 57.2 °F 77% 30.06 in 10.0 mi SW 3.5 mph - N/A   Clear
4:35 AM 64.4 °F - 57.2 °F 77% 30.06 in 10.0 mi WSW 4.6 mph - N/A   Clear
4:55 AM 64.4 °F - 57.2 °F 77% 30.06 in 10.0 mi WSW 5.8 mph - N/A   Clear
5:15 AM 64.4 °F - 55.4 °F 73% 30.06 in 10.0 mi WSW 5.8 mph - N/A   Clear
5:35 AM 62.6 °F - 55.4 °F 77% 30.06 in 10.0 mi West 4.6 mph - N/A   Clear
5:55 AM 62.6 °F - 55.4 °F 77% 30.07 in 10.0 mi West 4.6 mph - N/A   Clear
6:15 AM 62.6 °F - 55.4 °F 77% 30.06 in 10.0 mi WSW 5.8 mph - N/A   Clear
6:35 AM 62.6 °F - 55.4 °F 77% 30.06 in 10.0 mi West 5.8 mph - N/A   Clear
6:55 AM 62.6 °F - 55.4 °F 77% 30.07 in 10.0 mi WSW 5.8 mph - N/A   Clear
7:15 AM 62.6 °F - 55.4 °F 77% 30.07 in 10.0 mi WSW 5.8 mph - N/A   Clear
7:35 AM 60.8 °F - 55.4 °F 82% 30.08 in 10.0 mi West 5.8 mph - N/A   Clear
7:55 AM 64.4 °F - 55.4 °F 73% 30.09 in 10.0 mi WSW 4.6 mph - N/A   Clear
8:15 AM 64.4 °F - 55.4 °F 73% 30.09 in 10.0 mi West 4.6 mph - N/A   Clear
8:35 AM 64.4 °F - 55.4 °F 73% 30.09 in 10.0 mi WSW 4.6 mph - N/A   Clear
8:55 AM 66.2 °F - 55.4 °F 68% 30.10 in 10.0 mi West 4.6 mph - N/A   Clear
9:15 AM 68.0 °F - 59.0 °F 73% 30.10 in 10.0 mi West 5.8 mph - N/A   Clear
9:35 AM 68.0 °F - 57.2 °F 68% 30.10 in 10.0 mi West 4.6 mph - N/A   Clear
9:55 AM 71.6 °F - 59.0 °F 64% 30.10 in 10.0 mi West 6.9 mph - N/A   Clear
10:15 AM 71.6 °F - 59.0 °F 64% 30.10 in 10.0 mi WSW 6.9 mph - N/A   Clear
10:35 AM 73.4 °F - 60.8 °F 65% 30.10 in 10.0 mi WSW 5.8 mph - N/A   Clear
10:55 AM 75.2 °F - 60.8 °F 61% 30.10 in 10.0 mi West 6.9 mph - N/A   Clear
11:15 AM 77.0 °F - 60.8 °F 57% 30.09 in 10.0 mi West 8.1 mph - N/A   Clear
11:35 AM 77.0 °F - 59.0 °F 54% 30.08 in 10.0 mi West 9.2 mph - N/A   Clear
11:55 AM 78.8 °F - 59.0 °F 51% 30.07 in 10.0 mi West 10.4 mph - N/A   Clear
12:15 PM 78.8 °F - 59.0 °F 51% 30.06 in 10.0 mi WNW 10.4 mph 17.3 mph N/A   Clear
12:35 PM 80.6 °F 81.1 °F 59.0 °F 48% 30.05 in 10.0 mi West 12.7 mph 17.3 mph N/A   Clear
12:55 PM 80.6 °F 81.1 °F 59.0 °F 48% 30.03 in 10.0 mi West 8.1 mph - N/A   Clear
1:15 PM 80.6 °F 81.1 °F 59.0 °F 48% 30.02 in 10.0 mi WNW 6.9 mph - N/A   Clear
1:35 PM 80.6 °F 81.1 °F 59.0 °F 48% 30.01 in 10.0 mi West 5.8 mph - N/A   Clear
1:55 PM 82.4 °F 81.7 °F 55.4 °F 39% 30.00 in 10.0 mi NW 6.9 mph 16.1 mph N/A   Clear
2:15 PM 82.4 °F 81.7 °F 55.4 °F 39% 30.00 in 10.0 mi NW 6.9 mph - N/A   Scattered Clouds
2:35 PM 82.4 °F 81.7 °F 55.4 °F 39% 29.99 in 10.0 mi WNW 4.6 mph - N/A   Clear
2:55 PM 82.4 °F 81.4 °F 53.6 °F 37% 29.99 in 10.0 mi WNW 8.1 mph - N/A   Scattered Clouds
3:15 PM 82.4 °F - 51.8 °F 35% 29.99 in 10.0 mi NW 4.6 mph - N/A   Clear
3:35 PM 82.4 °F 81.4 °F 53.6 °F 37% 29.99 in 10.0 mi WNW 4.6 mph - N/A   Clear
3:55 PM 82.4 °F - 51.8 °F 35% 29.99 in 10.0 mi Calm Calm - N/A   Clear
4:15 PM 82.4 °F - 51.8 °F 35% 29.98 in 10.0 mi NW 5.8 mph - N/A   Mostly Cloudy
4:35 PM 80.6 °F 80.3 °F 53.6 °F 39% 29.99 in 10.0 mi NNW 5.8 mph - N/A   Mostly Cloudy
4:55 PM 80.6 °F 80.3 °F 53.6 °F 39% 29.99 in 10.0 mi North 5.8 mph - N/A   Scattered Clouds
5:15 PM 78.8 °F - 51.8 °F 39% 30.00 in 10.0 mi North 6.9 mph - N/A   Clear
5:35 PM 77.0 °F - 51.8 °F 41% 30.01 in 10.0 mi North 8.1 mph - N/A   Clear
5:55 PM 77.0 °F - 51.8 °F 41% 30.02 in 10.0 mi North 8.1 mph - N/A   Clear
6:15 PM 75.2 °F - 51.8 °F 44% 30.03 in 10.0 mi NNE 8.1 mph - N/A   Clear
6:35 PM 73.4 °F - 50.0 °F 44% 30.03 in 10.0 mi NNE 8.1 mph - N/A   Clear
6:55 PM 71.6 °F - 50.0 °F 46% 30.04 in 10.0 mi NNE 9.2 mph - N/A   Clear
7:15 PM 71.6 °F - 50.0 °F 46% 30.05 in 10.0 mi NE 8.1 mph - N/A   Clear
7:35 PM 69.8 °F - 48.2 °F 46% 30.06 in 10.0 mi NE 10.4 mph 16.1 mph N/A   Clear
7:55 PM 69.8 °F - 44.6 °F 40% 30.06 in 10.0 mi NE 9.2 mph - N/A   Clear
8:15 PM 68.0 °F - 44.6 °F 43% 30.07 in 10.0 mi NNE 8.1 mph - N/A   Clear
8:35 PM 68.0 °F - 44.6 °F 43% 30.08 in 10.0 mi NE 8.1 mph - N/A   Clear
8:55 PM 68.0 °F - 44.6 °F 43% 30.09 in 10.0 mi NNE 9.2 mph - N/A   Clear
9:15 PM 66.2 °F - 42.8 °F 43% 30.09 in 10.0 mi NNE 9.2 mph 16.1 mph N/A   Clear
9:35 PM 66.2 °F - 41.0 °F 40% 30.10 in 10.0 mi NNE 9.2 mph - N/A   Clear
9:55 PM 64.4 °F - 41.0 °F 42% 30.10 in 10.0 mi NNE 8.1 mph - N/A   Clear
10:15 PM 64.4 °F - 41.0 °F 42% 30.11 in 10.0 mi NNE 6.9 mph - N/A   Clear
10:35 PM 64.4 °F - 39.2 °F 40% 30.12 in 10.0 mi NNE 8.1 mph - N/A   Clear
10:55 PM 62.6 °F - 37.4 °F 39% 30.12 in 10.0 mi NNE 6.9 mph - N/A   Clear
11:15 PM 62.6 °F - 37.4 °F 39% 30.11 in 10.0 mi NNE 8.1 mph - N/A   Clear
11:35 PM 60.8 °F - 37.4 °F 42% 30.11 in 10.0 mi NE 9.2 mph - N/A   Clear
11:55 PM 60.8 °F - 37.4 °F 42% 30.11 in 10.0 mi NNE 6.9 mph - N/A   Clear